ROMMA est une association bénévole à but non lucratif. Votre soutien est indispensable : ADHERER à ROMMA ou FAIRE un DON

Arâches-la-Frasse - (74, Haute-Savoie)

Domaine du Grand Massif (1120 m)   Longitude: 06° 38' 33" E   Latitude: 46° 02' 45" N Station partenaire n°39
 

Détail journalier du     <<     >>

Température Humidité Vent Dir Rafale Dir. rafale Ensol.
Heure (°C) (%) (km/h) (km/h) (min)
01:00 13.3766ESE13ESE0
02:00 13.3766E13ESE0
03:00 13.0745ENE10E0
04:00 12.8736E13ESE0
05:00 12.4755ENE13ESE0
06:00 12.4754E11ESE0
07:00 11.8745E13E0
08:00 11.4744ENE13ESE0
09:00 12.5706E16ESE0
10:00 13.1695E13ESE0
11:00 15.4652ENE6E60
12:00 17.7571O6NO60
13:00 18.7495SO11SO60
14:00 17.3663SO11N60
15:00 18.0653N13NNO60
16:00 18.7664SSO11SO60
17:00 19.2593NNE8OSO60
18:00 19.3531OSO6OSO60
19:00 14.7693ESE8E0
20:00 14.4697ESE15ESE0
21:00 15.2655E16S0
22:00 14.6652E10ESE0
23:00 14.0613ENE11E0
minuit 13.1646ENE13ESE0

Graphique du 14-10-2019

 

Serveur OMMA